Hourly Data Report for October 22, 2015

All times are specified in Local Standard Time (LST). Add 1 hour to adjust for Daylight Saving Time where and when it is observed.

ST LEONARD CS
NEW BRUNSWICK

47°09'28.050" N
67°49'55.014" W
245.00 m
810I001
71019
WIY

Download Data

Hourly Data (October 2015)
Hourly Data Report for October 22, 2015
Temp Definition
°C
Dew Point Temp Definition
°C
Rel Hum Definition
%
Wind Dir Definition
10's deg

Wind Spd Definition
km/h
Visibility Definition
km
Stn Press Definition
kPa
Hmdx Definition


Wind Chill Definition


Weather Definition


TIME
00:00 -3.9 -5.7 88 17 3   99.79   -5 LegendNANA
01:00 -3.4 -5.4 86 8 4   99.74   -5 LegendNANA
02:00 -3.4 -5.1 88 11 5   99.69   -5 LegendNANA
03:00 -2.1 -4.2 85 9 5   99.68   -4 LegendNANA
04:00 -0.9 -4.3 78 9 6   99.63   -3 LegendNANA
05:00 -0.3 -4.1 76 15 8   99.57   -3 LegendNANA
06:00 -0.1 -2.2 85 12 13   99.46   -4 LegendNANA
07:00 0.3 -2.3 83 13 19   99.41     LegendNANA
08:00 0.5 -1.5 87 12 19   99.24     LegendNANA
09:00 0.4 -0.7 92 13 18   99.22     LegendNANA
10:00 0.9 0.2 95 13 19   99.03     LegendNANA
11:00 1.8 1.2 96 14 16   98.90     LegendNANA
12:00 3.4 2.3 92 16 24   98.74     LegendNANA
13:00 3.1 1.8 91 16 27   98.59     LegendNANA
14:00 3.6 2.5 92 16 21   98.48     LegendNANA
15:00 4.1 3.3 94 15 20   98.35     LegendNANA
16:00 4.9 4.3 96 16 20   98.26     LegendNANA
17:00 6.0 5.6 97 17 19   98.15     LegendNANA
18:00 7.2 6.8 98 17 21   98.08     LegendNANA
19:00 7.7 7.4 98 18 12   98.08     LegendNANA
20:00 7.7 7.3 98 19 11   98.04     LegendNANA
21:00 7.6 7.3 98 25 10   98.03     LegendNANA
22:00 5.6 5.3 98 35 12   98.10     LegendNANA
23:00 4.7 4.4 98 33 6   98.16     LegendNANA

Notes on Data Quality.

Legend

  • E = Estimated
  • M = Missing
  • NA = Not Available
  • ‡ = Partner data that is not subject to review by the National Climate Archives
Date modified: